FREGAT DEB, 45999

Orbit data source: Space-Track

FREGAT DEB, 45999 is space debris in LEO originally from a launch on Mon, 18 Jul 2011 UTC launched from the Tyuratam Missile And Space Complex (TTMTR). Debris objects in space refer to the collection of defunct objects orbiting the Earth. Examples of debris include non-operational satellites, rocket bodies, and fragments generated from explosions, collisions, or faulty payload assembly.

Loading next visibility...
Identifier
45999, 2011-037HA
Orbit
LEO
Country
Flag of CISCIS
Related business
Manufacturer
Lavochkin
Mission
Spacecraft
Bus & Motor
Unknown
Mass
Unknown
Launch date (UTC)
2011-07-18 (15 years ago)
Launch vehicle
Unknown
Launch site
Tyuratam Missile And Space Complex (TTMTR)
Object type
Payload
Rocket body
Debris
Shape & HBR
Unknown shape, 1.1 m
Radar Cross Section
Small (<0.1 m²)

Expand to show TLE details & history
Last TLE update: 9 hours ago

TLE from 9 hours ago
0 FREGAT DEB
1 45999U 11037HA  26127.00805234  .00000794  00000-0  21697-2 0  9995
2 45999  51.4658  54.9870 2139743  17.9577 348.6283 10.06351185212015
Epoch: 2026-05-07T00:11Z
TLE epoch observation values (Epoch: 2026-05-07T00:11:35.722Z)
Latitude
-0.00004°
Longitude
-172.77224°
Altitude
806.645 km
Speed
8.186 km/s
True Right ascension
03h 39m 56s
True Declination
0° 00' 00"
Sunlit
Object was in daylight at epoch
Visualization orbit readout
Latitude
Unknown
Longitude
Unknown
Altitude
Unknown
Speed
Unknown
Apparent Right ascension
Unknown
Apparent Declination
Unknown
Sunlit
N/A
Visualization observer readout
Local Sidereal Time
16:58:22
Azimuth
Unknown
Elevation
Unknown
Doppler factor
Unknown
Orbital elements
Apogee altitude
4,623.714 km
Perigee altitude
745.356 km
Semi-major axis
9,062.672 km
Eccentricity
0.21397
Inclination
51.4658°
RAAN
54.987°
Arg. of periapsis
17.9577°
True anomaly
342.12315°
Mean anomaly
348.6283°
Eccentric anomaly
345.57402°
Mean motion
2.5157 °/min
Orbital period
143.1 mins
BSTAR
0.0021697
Loading maneuver chart data...
Computing Atmospheric mass density...
Loading historical data...
Loading historical data...
Loading historical data...
Loading historical data...
Loading historical data...
Loading historical data...
Loading historical data...

Documentation

Showing up to 5 results
|